[[{"header":{"parameterUnit":"m.s-1","parameterCategory":1,"la1":30.2991,"la2":30.254,"lo1":-89.0895,"lo2":-89.0444,"dy":0.0017,"dx":0.0017,"nx":28,"ny":28,"refTime":"2025-07-05T09:00:00:Z","depth":0,"parameterNumber":2,"parameterNumberName":"U-component_of_WINDS"},"data":[0,0,0,0,0,0,0,0,0,0,0,0,0,0,0,0,0,0,0,0,0,0,0,0,0,0,0,0,0,0,0,0,0,0,0,0,0,0,0,0,0,0,0,0,0,0,0,0,0,0,0,0,0,0,0,0,0,0,-0.2488,-0.2487,0,-0.2415,-0.2414,-0.2413,-0.2389,-0.2389,-0.2389,-0.2389,-0.2315,-0.2313,-0.2311,0,0,0,0,0,0,0,0,0,0,0,0,0,-0.2607,-0.2605,-0.2488,-0.2487,-0.2486,-0.2415,-0.2414,-0.2413,-0.2388,-0.2389,-0.2389,-0.239,-0.2316,-0.2313,-0.2311,0,0,0,0,0,0,0,0,0,0,0,0,0,-0.2547,-0.2605,-0.2488,-0.2465,-0.2462,-0.2415,-0.2414,-0.2413,-0.2388,-0.2389,-0.2389,-0.239,-0.2317,-0.2314,-0.231,-0.2281,0,0,-0.23,-0.2299,0,0,0,0,0,0,0,0,-0.255,-0.2543,-0.2469,-0.2467,-0.2463,-0.2411,-0.2429,-0.2368,-0.2388,-0.2416,-0.2389,-0.239,-0.2347,-0.2341,-0.2326,-0.2277,-0.2274,-0.23,-0.2298,-0.2296,-0.2295,0,0,0,0,0,0,0,-0.2555,-0.2546,-0.2459,-0.2468,-0.2465,-0.2459,-0.2451,-0.2417,-0.238,-0.2414,-0.2412,-0.2404,-0.2345,-0.233,-0.2325,-0.2273,-0.23,-0.2297,-0.2295,-0.2293,-0.2197,-0.2197,0,0,0,0,0,0,-0.2563,-0.2549,-0.2461,-0.2457,-0.2509,-0.2457,-0.2448,-0.2428,-0.238,-0.2374,-0.2404,-0.2403,-0.2335,-0.2329,-0.2322,-0.2284,-0.2296,-0.2293,-0.2291,-0.2198,-0.2197,-0.2196,0,0,0,0,0,0,-0.2565,-0.2555,-0.2464,-0.2502,-0.249,-0.2454,-0.2432,-0.2426,-0.241,-0.2372,-0.2366,-0.2394,-0.2335,-0.2327,-0.2291,-0.2282,-0.2292,-0.2289,-0.2198,-0.2197,-0.2197,-0.2209,0,0,0,0,0,0,-0.2569,-0.2556,-0.2544,-0.2502,-0.2488,-0.2434,-0.2431,-0.2424,-0.2404,-0.2403,-0.2362,-0.2356,-0.2335,-0.2297,-0.2288,-0.2277,-0.2286,-0.2199,-0.2198,-0.2197,-0.2209,-0.2209,-0.2208,0,0,0,0,0,-0.2573,-0.255,-0.2543,-0.2533,-0.2472,-0.2434,-0.2426,-0.2402,-0.2404,-0.2391,-0.2368,-0.2357,-0.2284,-0.2293,-0.2283,-0.2271,-0.2199,-0.2198,-0.2197,-0.221,-0.2209,-0.2209,0,0,0,0,0,0,-0.2591,-0.2544,-0.2536,-0.2499,-0.247,-0.243,-0.2413,-0.2402,-0.2373,-0.2373,-0.2346,-0.2337,-0.2304,-0.2284,-0.2295,-0.2241,-0.2241,-0.2238,-0.2254,-0.2253,-0.2253,-0.2258,-0.2283,0,0,0,0,0,-0.259,-0.2562,-0.2523,-0.2494,-0.2481,-0.245,-0.2432,-0.2416,-0.2386,-0.2374,-0.2347,-0.2318,-0.2289,-0.227,-0.2241,-0.2207,-0.2198,-0.2194,-0.2194,-0.2194,-0.2191,-0.2172,-0.217,-0.2192,-0.2192,-0.2192,0,0,-0.2589,-0.256,-0.2544,-0.2497,-0.2473,-0.2446,-0.2439,-0.241,-0.2389,-0.2369,-0.2334,-0.2314,-0.2281,-0.2246,-0.2229,-0.2229,-0.2183,-0.2192,-0.2192,-0.2189,-0.2171,-0.2169,-0.2167,-0.2192,-0.2192,-0.2192,0,0,-0.2572,-0.2547,-0.2521,-0.2498,-0.2462,-0.2442,-0.2436,-0.2397,-0.2383,-0.2348,-0.2332,-0.2308,-0.2258,-0.2235,-0.2216,-0.2194,-0.2183,-0.2185,-0.2182,-0.2164,-0.2162,-0.2161,-0.2153,-0.215,-0.2183,-0.2183,-0.2183,0,-0.2575,-0.2532,-0.2509,-0.248,-0.2461,-0.2442,-0.2416,-0.2394,-0.2351,-0.2338,-0.2338,-0.2276,-0.2252,-0.2212,-0.2207,-0.2192,-0.2185,-0.2189,-0.2165,-0.2163,-0.2161,-0.2153,-0.215,-0.2183,-0.2183,-0.2183,-0.2183,0,-0.2538,-0.2508,-0.2491,-0.2451,-0.2429,-0.2402,-0.2375,-0.2356,-0.2344,-0.2324,-0.2289,-0.226,-0.2225,-0.2215,-0.2202,-0.2174,-0.2174,-0.217,-0.217,-0.2159,-0.2152,-0.2148,-0.2184,-0.2184,-0.2184,-0.2183,0,0,-0.2528,-0.2476,-0.247,-0.2452,-0.2412,-0.2389,-0.2362,-0.2329,-0.2313,-0.2285,-0.2262,-0.2221,-0.2217,-0.2196,-0.2181,-0.2166,-0.215,-0.2163,-0.2162,-0.2162,-0.2118,-0.2121,-0.2118,-0.2144,-0.2143,-0.2142,-0.2121,0,-0.2506,-0.2456,-0.2435,-0.2395,-0.2368,-0.2351,-0.2328,-0.2301,-0.2283,-0.2258,-0.2238,-0.2209,-0.2206,-0.2194,-0.2178,-0.2155,-0.2141,-0.2157,-0.2122,-0.2121,-0.213,-0.2114,-0.2117,-0.2098,-0.2118,-0.2117,-0.2117,0,-0.2473,-0.2445,-0.2402,-0.2367,-0.2355,-0.2334,-0.2302,-0.2279,-0.2249,-0.2237,-0.2215,-0.2201,-0.2173,-0.2176,-0.2137,-0.2148,-0.2133,-0.212,-0.2119,-0.2114,-0.2118,-0.2108,-0.2091,-0.2088,-0.2112,-0.2112,-0.2112,0,-0.247,-0.2422,-0.239,-0.2375,-0.2334,-0.232,-0.2302,-0.2273,-0.2254,-0.2227,-0.2215,-0.2185,-0.2168,-0.2145,-0.2124,-0.2128,-0.2087,-0.2088,-0.2076,-0.2077,-0.2068,-0.2068,-0.2047,-0.2059,-0.2059,-0.2059,-0.2059,0,-0.2447,-0.2422,-0.2388,-0.2369,-0.234,-0.2318,-0.229,-0.2271,-0.2246,-0.2223,-0.2207,-0.2186,-0.216,-0.2135,-0.2119,-0.2089,-0.2082,-0.2072,-0.2067,-0.2073,-0.2074,-0.2062,-0.2062,-0.2058,-0.2058,-0.2059,-0.2059,0,-0.2438,-0.2415,-0.238,-0.2344,-0.2335,-0.2315,-0.2285,-0.2266,-0.2248,-0.2219,-0.2211,-0.2182,-0.2153,-0.213,-0.2092,-0.2081,-0.205,-0.2045,-0.206,-0.2057,-0.2047,-0.2048,-0.2017,-0.2012,-0.2027,-0.2027,-0.2027,0,-0.2425,-0.2405,-0.2368,-0.2352,-0.2334,-0.2308,-0.2289,-0.2267,-0.2248,-0.2214,-0.22,-0.217,-0.2144,-0.2099,-0.2075,-0.2046,-0.204,-0.2032,-0.2036,-0.2042,-0.204,-0.2042,-0.204,-0.2031,-0.2031,-0.2031,-0.2031,0,-0.2404,-0.2394,-0.2367,-0.2338,-0.2316,-0.2292,-0.2267,-0.2255,-0.2228,-0.2208,-0.2178,-0.2159,-0.2121,-0.2091,-0.2061,-0.2043,-0.2032,-0.203,-0.2025,-0.203,-0.2039,-0.2034,-0.2058,-0.203,-0.203,-0.203,-0.203,-0.203,-0.2392,-0.2374,-0.2345,-0.2317,-0.2297,-0.2274,-0.2255,-0.2235,-0.221,-0.2177,-0.2165,-0.2135,-0.2108,-0.2065,-0.2048,-0.2024,-0.2023,-0.2017,-0.2015,-0.2014,-0.2015,-0.2044,-0.2019,-0.2019,-0.2019,-0.2019,-0.2019,0,-0.237,-0.2351,-0.2325,-0.2292,-0.227,-0.2263,-0.2236,-0.2218,-0.2192,-0.2167,-0.2143,-0.211,-0.2082,-0.2056,-0.2027,-0.2013,-0.2008,-0.2006,-0.2007,-0.2003,-0.2017,-0.2024,-0.2011,-0.2011,-0.2011,-0.2011,-0.2011,-0.2011,-0.2355,-0.2325,-0.2312,-0.2272,-0.2253,-0.2224,-0.2209,-0.2189,-0.2169,-0.2133,-0.2109,-0.2093,-0.2069,-0.2038,-0.2012,-0.2006,-0.1996,-0.1996,-0.1988,-0.2001,-0.2002,-0.2003,-0.2009,-0.1994,-0.1994,-0.1975,-0.1975,-0.1975]},{"header":{"parameterUnit":"m.s-1","parameterCategory":1,"la1":30.2991,"la2":30.254,"lo1":-89.0895,"lo2":-89.0444,"dy":0.0017,"dx":0.0017,"nx":28,"ny":28,"refTime":"2025-07-05T09:00:00:Z","depth":0,"parameterNumber":3,"parameterNumberName":"V-component_of_WINDS"},"data":[0,0,0,0,0,0,0,0,0,0,0,0,0,0,0,0,0,0,0,0,0,0,0,0,0,0,0,0,0,0,0,0,0,0,0,0,0,0,0,0,0,0,0,0,0,0,0,0,0,0,0,0,0,0,0,0,0,0,-0.1971,-0.1973,0,-0.215,-0.2152,-0.2154,-0.222,-0.2219,-0.2219,-0.2218,-0.2401,-0.2406,-0.2411,0,0,0,0,0,0,0,0,0,0,0,0,0,-0.1686,-0.1691,-0.1971,-0.1973,-0.1975,-0.2149,-0.2152,-0.2154,-0.222,-0.2219,-0.2218,-0.2218,-0.2399,-0.2405,-0.2412,0,0,0,0,0,0,0,0,0,0,0,0,0,-0.1831,-0.1692,-0.197,-0.2029,-0.2036,-0.2149,-0.2152,-0.2155,-0.222,-0.2219,-0.2218,-0.2217,-0.2397,-0.2405,-0.2413,-0.248,0,0,-0.2438,-0.2441,0,0,0,0,0,0,0,0,-0.1823,-0.1842,-0.2018,-0.2025,-0.2033,-0.2162,-0.2118,-0.2264,-0.222,-0.215,-0.2218,-0.2217,-0.2322,-0.2336,-0.2372,-0.2489,-0.2497,-0.2438,-0.2443,-0.2447,-0.2449,0,0,0,0,0,0,0,-0.1813,-0.1834,-0.2041,-0.2021,-0.203,-0.2046,-0.2066,-0.2146,-0.2239,-0.2156,-0.2161,-0.2182,-0.2326,-0.2364,-0.2376,-0.2499,-0.2438,-0.2445,-0.245,-0.2453,-0.2682,-0.2683,0,0,0,0,0,0,-0.1793,-0.1826,-0.2036,-0.2047,-0.1924,-0.2052,-0.2074,-0.2121,-0.2238,-0.2255,-0.2182,-0.2184,-0.235,-0.2367,-0.2383,-0.2471,-0.2447,-0.2454,-0.2459,-0.2681,-0.2682,-0.2684,0,0,0,0,0,0,-0.1787,-0.1811,-0.2029,-0.1938,-0.1967,-0.2058,-0.211,-0.2125,-0.2163,-0.2258,-0.2274,-0.2204,-0.235,-0.2372,-0.2456,-0.2478,-0.2458,-0.2465,-0.268,-0.2681,-0.2683,-0.2647,0,0,0,0,0,0,-0.1778,-0.1809,-0.1835,-0.1938,-0.1971,-0.2099,-0.2112,-0.2129,-0.2177,-0.2181,-0.2282,-0.2298,-0.2351,-0.2443,-0.2464,-0.2489,-0.2472,-0.2678,-0.268,-0.2683,-0.2646,-0.2647,-0.2648,0,0,0,0,0,-0.1768,-0.1817,-0.1836,-0.1861,-0.2007,-0.21,-0.2119,-0.2179,-0.2178,-0.2206,-0.2267,-0.2295,-0.2472,-0.2451,-0.2475,-0.2503,-0.2677,-0.268,-0.2682,-0.2646,-0.2647,-0.2648,0,0,0,0,0,0,-0.1715,-0.1832,-0.1854,-0.1938,-0.2009,-0.2111,-0.2148,-0.2177,-0.2249,-0.225,-0.232,-0.2343,-0.2422,-0.2471,-0.2446,-0.2575,-0.2576,-0.2584,-0.2541,-0.2542,-0.2543,-0.253,-0.2478,0,0,0,0,0,-0.1713,-0.1779,-0.1878,-0.1942,-0.1977,-0.2056,-0.2098,-0.2138,-0.2214,-0.2244,-0.2311,-0.2383,-0.2455,-0.2501,-0.2572,-0.2653,-0.2677,-0.2684,-0.2684,-0.2685,-0.2691,-0.2739,-0.2743,-0.2693,-0.2693,-0.2693,0,0,-0.171,-0.1782,-0.1819,-0.1934,-0.1993,-0.206,-0.208,-0.215,-0.2201,-0.2254,-0.2339,-0.239,-0.2475,-0.2558,-0.2598,-0.2602,-0.271,-0.2688,-0.2687,-0.2694,-0.2742,-0.2747,-0.2751,-0.2695,-0.2694,-0.2694,0,0,-0.1739,-0.1799,-0.1861,-0.192,-0.2009,-0.2061,-0.2076,-0.2174,-0.221,-0.2296,-0.2338,-0.2399,-0.2521,-0.258,-0.2626,-0.2677,-0.2707,-0.2698,-0.2703,-0.2748,-0.2752,-0.2756,-0.2776,-0.2782,-0.2704,-0.2704,-0.2704,0,-0.1724,-0.1827,-0.1889,-0.1957,-0.2006,-0.2058,-0.2121,-0.2175,-0.2282,-0.2316,-0.2317,-0.2472,-0.2533,-0.2632,-0.2644,-0.2679,-0.2699,-0.2688,-0.2747,-0.2751,-0.2756,-0.2776,-0.2783,-0.2702,-0.2703,-0.2703,-0.2703,0,-0.1805,-0.1875,-0.1914,-0.2018,-0.2071,-0.2136,-0.2208,-0.2255,-0.2289,-0.2341,-0.2428,-0.2503,-0.2591,-0.2616,-0.2651,-0.272,-0.272,-0.2733,-0.2736,-0.2758,-0.2778,-0.2786,-0.27,-0.2701,-0.2701,-0.2702,0,0,-0.1807,-0.1944,-0.1957,-0.2005,-0.2107,-0.2163,-0.223,-0.2316,-0.2356,-0.2428,-0.2487,-0.2589,-0.2602,-0.2654,-0.2696,-0.2735,-0.2773,-0.2744,-0.2747,-0.2749,-0.2856,-0.2846,-0.2854,-0.2792,-0.2794,-0.2795,-0.2849,0,-0.1851,-0.1974,-0.2032,-0.213,-0.2196,-0.2246,-0.2305,-0.2374,-0.2424,-0.2487,-0.2542,-0.2615,-0.2626,-0.2658,-0.2699,-0.2759,-0.2796,-0.2756,-0.2849,-0.2851,-0.2828,-0.2864,-0.2855,-0.2902,-0.2857,-0.2858,-0.2859,0,-0.1919,-0.1992,-0.2096,-0.2192,-0.2222,-0.2273,-0.2358,-0.2418,-0.2497,-0.253,-0.2589,-0.2629,-0.2702,-0.2698,-0.28,-0.2771,-0.2812,-0.2847,-0.2851,-0.2863,-0.2858,-0.288,-0.2919,-0.2926,-0.2872,-0.2871,-0.287,0,-0.1912,-0.2036,-0.2115,-0.2155,-0.2267,-0.2302,-0.2351,-0.2429,-0.2478,-0.2551,-0.2583,-0.2663,-0.2707,-0.2769,-0.2829,-0.2821,-0.2926,-0.2927,-0.2957,-0.2955,-0.2979,-0.2977,-0.3027,-0.3001,-0.3001,-0.3001,-0.3001,0,-0.1957,-0.2019,-0.2114,-0.2163,-0.2234,-0.23,-0.2369,-0.242,-0.249,-0.255,-0.2597,-0.2652,-0.2728,-0.2792,-0.284,-0.2918,-0.2937,-0.2967,-0.2979,-0.2964,-0.2961,-0.2993,-0.2992,-0.3003,-0.3002,-0.3002,-0.3002,0,-0.1962,-0.2028,-0.2118,-0.2217,-0.2243,-0.2292,-0.2376,-0.2426,-0.2478,-0.2553,-0.2574,-0.2656,-0.2735,-0.2801,-0.2904,-0.2936,-0.3018,-0.3031,-0.2991,-0.2998,-0.3025,-0.3023,-0.31,-0.3114,-0.3076,-0.3077,-0.3077,0,-0.1987,-0.2036,-0.2141,-0.2184,-0.2232,-0.2302,-0.2352,-0.2417,-0.2467,-0.2561,-0.26,-0.2682,-0.2751,-0.2874,-0.2943,-0.3022,-0.3039,-0.3061,-0.3052,-0.3035,-0.3042,-0.3039,-0.3045,-0.3062,-0.3062,-0.3062,-0.3062,0,-0.2025,-0.2055,-0.2125,-0.2207,-0.2265,-0.2333,-0.2401,-0.2434,-0.2513,-0.2566,-0.2648,-0.2701,-0.2807,-0.2888,-0.2975,-0.3025,-0.3057,-0.3064,-0.3076,-0.3062,-0.3038,-0.3053,-0.2995,-0.3063,-0.3063,-0.3063,-0.3063,-0.3063,-0.2042,-0.2089,-0.217,-0.2247,-0.2305,-0.2369,-0.242,-0.2479,-0.2548,-0.264,-0.2674,-0.2757,-0.2836,-0.2956,-0.3006,-0.3072,-0.3076,-0.3092,-0.3097,-0.31,-0.3099,-0.3025,-0.3088,-0.3088,-0.3088,-0.3088,-0.3088,0,-0.2084,-0.2139,-0.2209,-0.2304,-0.2364,-0.2389,-0.2466,-0.2515,-0.2588,-0.2658,-0.2726,-0.282,-0.2899,-0.2973,-0.3056,-0.3095,-0.3112,-0.3115,-0.3114,-0.3125,-0.309,-0.3072,-0.31,-0.31,-0.31,-0.31,-0.31,-0.31,-0.2113,-0.2194,-0.2234,-0.2344,-0.2399,-0.2481,-0.2524,-0.2582,-0.2639,-0.2742,-0.2808,-0.2856,-0.2929,-0.3017,-0.3091,-0.3111,-0.314,-0.3139,-0.3163,-0.3129,-0.3127,-0.3125,-0.311,-0.3145,-0.3145,-0.3194,-0.3194,-0.3194]}]]